SCP
0 0 0 0 0 0 0 0 0 0 0 0 0 0 0 0 0 0 0 0 0 0 0 0 0 0 0 0 0 0 0 0 0 0 0 0 0 0 0 0 -0 0 -0 0 -0 0 0 0 0 0 0 0 0 0
0 0 0 0 0 0 0 0 0 0 0 0 0 0 0 0 0 0 0 0 0 0 0 0 0 0 0 0 0 0 0 0 0 0 0 -0 0 0 0 0 0 0 0 -0 -0 0 0 0 0 0 0 0 0 0
0 0 0 0 0 0 0 0 0 0 0 0 0 0 0 0 0 0 0 0 0 0 0 0 0 0 0 0 0 0 0 0 0 0 0 -0 0 0 -0 0 0 0 0 0 -0 0 -0 0 -0 0 0 0 0 0
0 0 0 0 0 0 0 0 0 0 0 0 0 0 0 0 0 0 0 0 0 0 0 0 0 0 0 0 0 0 0 0 0 0 0 0 -0 -0 0 0 0 0 0 0 0 0 -0 0 -0 -0 0 0 0 0
0 0 0 0 0 0 0 0 0 0 0 0 0 0 0 0 0 0 0 0 0 0 0 0 0 0 0 0 0 0 0 0 0 0 0 0 -0 -0 -0 -0 -0 0 0 0 0 0 0 0 -0 -0 0 0 0 0
0 0 0 0 0 0 0 0 0 0 0 0 0 0 0 0 0 0 0 0 0 0 0 0 0 0 0 0 0 0 0 0 0 0 0 0 0 -0 -0 -0 -0 -0 0 0 0 0 0 0 -0 -0 0 -0 0 0
0 0 0 0 0 0 0 0 0 0 0 0 0 0 0 0 0 0 0 0 0 0 0 0 0 0 0 0 0 0 0 0 0 0 0 0 0 -0 0 -0 0 -0 -0 0 0 0 0 0 0 0 0 -0 0 0
0 0 0 0 0 0 0 0 0 0 0 0 0 0 0 0 0 0 0 0 0 0 0 0 0 0 0 0 0 0 0 0 0 0 0 0 0 -0 -0 0 0 -0 -0 0 0 0 0 0 0 0 0 0 0 0
0 0 0 0 0 0 0 0 0 0 0 0 0 0 0 0 0 0 0 0 0 0 0 0 0 0 0 0 0 0 0 0 0 0 0 0 0 0 -0 -0 0 0 0 0 0 0 0 0 0 0 0 0 0 0
0 0 0 0 0 0 0 0 0 0 0 0 0 0 0 0 0 0 0 0 0 0 0 0 0 0 0 0 0 0 0 0 0 0 0 0 0 0 -0 -0 -0 0 0 0 0 0 0 0 0 0 0 0 0 -0
0 0 0 0 0 0 0 0 0 0 0 0 0 0 0 0 0 0 0 0 0 0 0 0 0 0 0 0 0 0 0 0 0 0 0 0 -0 0 -0 -0 0 0 0 0 0 0 0 0 0 0 0 0 0 0
0 0 0 0 0 0 0 0 0 0 0 0 0 0 0 0 0 0 0 0 0 0 0 0 0 0 0 0 0 0 0 0 0 0 0 -0 0 -0 -0 -0 -0 0 0 0 0 0 0 0 0 0 0 0 0 0
0 0 0 0 0 0 0 0 0 0 0 0 0 0 0 0 0 0 0 0 0 0 0 0 0 0 0 0 0 0 0 0 0 -0 -0 0 0 -0 -0 -0 -0 -0 0 0 0 0 0 0 0 0 0 0 0 0
0 0 0 0 0 0 0 0 0 0 0 0 0 0 0 0 0 0 0 0 0 0 0 0 0 0 0 0 0 0 0 0 0 0 0 0 -0 -0 -0 -0 -0 -0 -0 0 0 0 0 0 0 0 0 0 0 0
0 0 0 0 0 0 0 0 0 0 0 0 0 0 0 0 0 0 0 0 0 0 0 0 0 0 0 0 0 0 0 0 0 0 0 0 -0 -0 -0 -0 -0 -0 -0 -0 -0 0 0 0 0 0 0 0 0 0
0 -0 0 0 0 0 0 0 0 0 0 0 0 0 0 0 0 0 0 0 0 0 0 0 0 0 0 0 0 0 0 0 0 0 0 0 -0 -0 -0 -0 0 -0 -0 -0 -0 -0 -0 -0 0 0 0 0 0 0
0 0 0 0 0 0 0 0 0 0 0 0 0 0 0 0 0 0 0 0 0 0 0 0 0 0 0 0 0 0 0 0 0 0 0 -0 -0 -0 0 0 -0 -0 -0 -0 -0 -0 -0 -0 -0 -0 0 0 0 0
0 0 0 0 0 0 0 0 0 0 0 0 0 0 0 0 0 0 0 0 0 0 0 0 0 0 0 0 0 0 0 0 0 0 0 0 0 0 0 0 -0 -0 -0 0 0 0 0 -0 -0 -0 -0 -0 0 0
0 0 0 0 0 0 0 0 0 0 0 0 0 0 0 0 0 0 0 0 0 0 0 0 0 0 0 0 0 0 0 0 0 0 0 0 0 0 0 0 0 0 0 0 0 -0 -0 -0 0 -0 -0 -0 -0 -0
0 0 0 0 0 0 0 0 0 0 0 0 0 0 0 0 0 0 0 0 0 0 0 0 0 0 0 0 0 0 0 0 0 0 0 0 0 0 0 0 0 0 0 0 0 -0 -0 -0 -0 -0 -0 -0 -0 -0
0 0 0 0 0 0 0 0 0 0 0 0 0 0 0 0 0 0 0 0 0 0 0 0 0 0 0 0 0 0 0 0 0 0 0 0 0 0 0 0 -0 0 0 0 -0 -0 -0 -0 -0 -0 -0 -0 -0 -0
0 0 0 0 0 0 0 0 0 0 0 0 0 0 0 0 0 0 0 0 0 0 0 0 0 0 0 0 0 0 0 0 0 0 0 0 0 -0 -0 -0 -0 -0 -0 -0 0 -0 0 0 0 0 0 0 0 -0
0 0 0 0 0 0 0 0 0 0 0 0 0 0 0 0 0 0 0 0 0 0 0 0 0 0 0 0 0 0 0 0 0 0 0 0 0 0 -0 -0 -0 -0 -0 0 -0 -0 -0 -0 -0 -0 0 0 0 0
0 0 0 0 0 0 0 0 0 0 0 0 0 0 0 0 0 0 0 0 0 0 0 0 0 0 0 0 0 0 0 -0 0 0 -0 0 0 -0 0 0 0 0 -0 -0 -0 -0 -0 -0 -0 -0 0 0 0 0
0 0 0 0 0 0 0 0 0 0 0 0 0 0 0 0 0 0 0 0 0 0 0 0 0 0 0 0 0 0 0 -0 0 0 -0 -0 0 0 -0 -0 -0 -0 -0 0 -0 -0 -0 -0 -0 -0 -0 0 0 0
0 0 0 0 0 0 0 0 0 0 0 0 0 0 0 0 0 0 0 0 0 0 0 0 0 0 -0 -0 0 0 0 0 0 0 0 0 0 0 0 -0 -0 -0 -0 0 0 -0 -0 -0 -0 -0 -0 0 0 0
0 0 0 0 0 0 0 0 0 0 0 0 0 0 0 0 0 0 0 0 0 0 0 0 0 -0 -0 -0 0 0 0 0 0 0 0 -0 -0 -0 -0 -0 0 -0 0 -0 0 -0 -0 -0 -0 -0 0 0 0 0
0 0 0 0 0 0 0 0 0 -0 0 0 0 0 0 0 0 0 0 0 0 0 0 0 0 0 0 0 0 0 0 0 0 0 0 0 0 0 -0 -0 -0 0 0 0 0 0 0 0 0 -0 -0 0 0 0
0 0 0 0 0 0 0 0 0 0 0 0 0 0 0 0 -0 0 0 0 0 0 0 0 0 0 0 0 0 0 0 0 0 0 0 0 0 0 0 0 0 0 0 0 0 0 0 0 0 -0 -0 0 0 0
0 0 0 0 0 0 0 0 0 0 0 0 0 0 -0 -0 -0 0 0 0 0 -0 0 0 0 0 0 0 0 0 0 0 0 0 0 0 0 0 0 0 0 0 0 0 0 0 0 0 0 0 0 0 0 0
0 0 0 0 0 0 -0 -0 0 0 0 0 0 0 0 0 0 0 0 0 0 0 0 0 0 0 0 0 0 0 0 0 0 0 0 0 0 0 0 0 0 0 0 0 0 0 0 0 0 0 0 0 0 0
0 0 0 0 0 0 0 0 0 0 0 0 0 0 0 0 0 0 0 0 0 0 0 0 0 0 0 0 0 0 0 0 0 0 0 0 0 0 0 0 0 0 0 0 0 0 0 0 0 0 0 0 0 0
0 0 0 0 0 0 0 0 0 0 0 0 0 0 0 0 0 0 0 0 0 0 0 0 0 0 0 0 0 0 0 0 0 0 0 0 0 0 0 0 0 0 0 0 0 0 0 0 0 0 0 0 0 0
Wind_Speed_500mb
75 74 71 65 62 58 55 54 54 53 54 53 54 51 48 41 35 30 27 24 16 15 57 23 22 26 24 16 7 19 19 7 10 11 9 8 5 8 9 10 12 8 9 7 7 6 9 50 19 11 11 18 15 34
76 75 74 70 66 63 57 55 56 55 53 53 52 47 46 40 31 32 30 28 26 31 58 74 53 35 40 32 21 9 6 9 9 6 4 6 4 6 8 7 11 4 8 7 9 6 18 28 24 45 22 12 28 30
66 69 71 74 71 64 62 59 57 55 55 52 50 47 43 36 29 31 32 32 32 27 53 22 7 10 26 33 21 13 7 5 6 7 4 4 5 4 6 4 8 9 22 5 10 11 28 25 53 55 18 3 29 39
68 66 68 70 71 68 66 61 60 55 53 50 47 45 41 34 29 30 28 34 34 17 11 16 26 37 14 10 22 32 27 6 12 15 5 2 4 2 3 5 5 7 21 16 9 14 33 15 59 49 19 23 40 44
65 63 64 65 68 66 64 64 60 54 49 45 43 40 38 30 28 29 33 43 35 17 10 29 43 3 9 18 17 26 35 31 14 6 5 2 1 3 5 2 1 14 7 6 6 26 15 27 52 33 12 21 36 47
58 57 59 60 61 62 60 57 54 53 41 37 40 37 34 33 25 23 12 5 5 17 10 9 19 11 16 16 6 16 22 20 11 6 4 2 1 4 3 2 3 17 19 15 14 44 34 31 23 14 6 13 35 44
49 50 53 51 49 48 45 44 38 38 30 34 38 35 34 32 30 16 12 10 10 4 7 12 14 11 19 9 2 7 20 7 9 4 4 1 0 5 2 3 12 24 22 19 24 32 9 18 16 8 7 18 31 36
47 49 45 44 41 40 37 36 27 28 28 34 36 31 28 31 34 26 15 21 24 10 9 6 8 14 11 6 3 8 8 9 5 4 3 2 2 1 3 8 17 21 14 15 21 19 14 13 4 5 8 21 31 42
51 50 53 47 43 35 30 32 25 26 26 36 29 24 29 23 8 6 9 11 19 11 8 7 5 7 16 6 5 3 6 5 4 3 4 4 1 3 4 7 13 17 14 13 16 20 16 17 20 19 16 21 28 37
54 54 54 53 49 41 31 27 19 28 34 22 23 12 6 5 8 4 8 8 17 13 13 10 7 8 9 6 5 3 2 2 4 3 7 3 3 5 2 3 8 13 18 14 6 17 18 23 17 17 18 21 30 42
55 56 56 49 43 38 27 24 25 27 17 14 10 7 10 9 7 6 8 10 10 8 14 13 21 11 8 6 5 2 2 2 4 4 4 1 4 10 12 2 7 13 14 16 17 15 16 17 15 13 13 16 24 36
56 55 44 38 34 32 30 28 28 22 13 11 5 10 9 11 10 8 6 6 10 8 11 10 13 18 8 9 6 4 4 3 3 8 4 4 6 24 21 17 12 13 15 15 14 22 22 19 19 18 18 14 20 31
58 44 40 32 30 29 29 26 18 19 21 18 10 7 7 8 9 12 14 8 7 11 13 12 6 6 6 7 7 4 5 2 6 3 4 1 19 27 25 22 19 10 4 12 19 18 22 30 30 31 30 26 27 33
56 42 39 33 31 31 28 23 20 20 17 11 10 9 12 10 11 11 9 6 9 6 9 11 4 6 5 6 3 6 2 4 4 4 4 8 30 31 26 24 22 23 25 28 30 30 30 30 28 29 35 33 36 42
48 45 46 38 35 30 29 22 23 22 16 11 10 10 15 14 10 9 14 12 12 10 8 6 3 3 4 5 4 1 5 7 6 4 1 19 39 37 34 37 37 30 24 21 19 21 24 27 27 27 23 20 21 24
47 41 44 42 35 31 32 25 27 26 12 11 13 9 14 8 12 11 17 19 9 11 10 3 1 5 8 4 7 10 4 7 1 2 5 33 45 42 43 40 33 28 24 21 18 17 19 21 20 19 15 11 10 10
38 41 32 35 27 38 32 29 25 16 15 11 13 19 18 10 12 7 9 6 10 12 5 5 7 8 1 5 6 6 6 1 2 3 9 35 49 48 47 40 33 27 21 17 15 12 10 12 12 12 10 9 8 8
43 32 27 26 36 44 43 31 14 13 16 22 10 13 20 19 15 19 19 21 9 9 12 8 7 8 7 6 4 2 6 6 5 4 17 39 49 51 47 40 31 24 20 17 13 8 6 6 6 7 8 8 9 11
44 31 31 29 40 49 18 20 19 9 23 12 18 26 21 20 33 39 36 34 25 20 8 9 10 7 7 9 10 7 6 9 6 11 28 44 50 52 44 36 29 24 22 19 16 13 11 8 7 7 8 9 10 12
42 40 32 34 41 22 11 10 15 10 8 10 14 15 17 20 25 26 31 37 37 15 16 10 10 12 13 13 13 13 12 14 21 25 31 47 52 47 42 39 33 28 28 27 23 18 13 11 11 10 10 12 14 14
49 39 34 42 38 32 11 11 13 8 8 10 6 10 11 17 20 22 24 29 21 18 15 23 26 40 34 29 23 21 15 15 28 29 50 51 56 47 44 40 33 33 33 31 25 19 13 9 10 9 7 6 6 6
43 41 30 55 15 12 10 14 6 4 7 9 9 11 12 9 12 14 15 21 19 32 32 33 43 34 29 33 29 22 17 13 25 29 34 55 61 51 48 47 41 38 36 31 24 17 13 7 5 6 5 4 3 4
38 38 15 16 10 16 4 11 5 7 7 6 5 6 7 9 8 9 9 14 22 44 47 48 49 47 38 33 27 23 20 28 25 29 34 53 52 48 49 45 42 35 34 32 27 21 15 10 7 3 1 2 5 3
33 26 14 20 14 10 10 10 9 7 8 6 5 7 8 8 10 7 7 10 27 28 36 45 42 36 29 24 24 19 28 37 30 28 39 48 49 47 43 41 37 32 27 28 28 24 21 19 17 14 9 4 7 6
5 11 12 8 9 9 9 8 9 8 8 10 6 7 6 10 5 5 5 8 15 27 26 22 25 24 29 29 31 39 39 33 33 34 39 43 45 44 41 38 34 31 28 27 26 25 25 26 26 24 19 7 10 11
8 9 13 19 13 11 12 7 12 12 8 9 9 7 5 5 6 7 5 5 8 16 24 28 29 31 29 29 29 36 35 35 30 35 41 42 44 43 40 37 34 31 30 28 28 29 31 31 31 29 28 12 16 17
7 9 10 11 10 8 6 10 6 4 9 9 5 5 6 6 6 3 11 8 1 12 18 21 23 24 27 26 27 34 34 32 26 28 35 37 37 36 36 36 32 25 15 18 22 23 31 31 32 32 30 19 19 20
7 13 9 18 9 9 5 5 10 11 8 8 4 7 5 4 4 10 10 3 19 26 20 18 15 15 21 25 31 38 35 31 26 26 32 33 31 28 26 25 26 28 30 22 18 17 17 18 22 28 32 19 23 24
9 12 16 12 12 11 13 7 6 6 5 3 3 4 3 5 15 31 15 12 27 26 22 16 17 19 24 28 30 28 30 29 34 35 35 33 31 24 21 18 20 27 26 22 19 14 11 11 19 27 22 13 23 27
10 20 13 16 9 14 12 19 11 15 11 11 9 6 2 3 8 19 3 21 30 26 20 19 20 27 30 29 29 29 25 22 18 21 23 18 17 17 17 11 9 11 13 13 11 11 20 23 28 33 23 22 31 33
11 23 9 12 9 13 26 23 24 15 7 5 8 3 3 6 6 7 4 16 21 24 25 25 30 28 25 22 20 18 19 22 15 16 17 17 16 14 18 16 12 11 13 16 16 16 21 25 30 37 30 29 34 37
17 18 11 10 8 14 15 19 16 13 12 9 1 1 9 10 10 9 13 15 19 28 27 28 27 26 20 16 20 20 17 18 17 16 15 16 16 17 16 14 14 16 17 21 23 21 24 22 28 26 34 39 41 39
11 12 13 8 7 8 12 8 1 1 4 7 11 17 19 16 11 17 19 18 20 24 31 29 22 19 20 18 17 17 15 14 13 12 10 9 8 8 10 12 14 15 18 21 24 27 30 36 40 43 39 37 38 41
Wind_Direction_500mb
285 287 293 294 301 306 311 315 317 319 319 319 320 324 325 325 323 322 320 317 284 256 294 274 280 264 276 264 271 319 333 9 328 21 6 351 322 6 311 342 336 8 336 343 330 353 2 357 354 30 346 317 160 154
281 285 287 287 294 299 302 306 308 312 314 314 315 318 320 320 315 316 318 319 307 279 280 297 295 279 250 251 269 276 279 291 338 330 341 323 319 337 317 321 347 37 18 296 333 355 326 348 346 326 313 253 149 144
280 280 281 282 284 287 290 297 301 305 308 309 312 313 317 313 305 304 317 314 313 297 306 314 332 319 292 292 257 229 233 276 344 323 297 308 319 314 344 333 282 357 16 324 321 5 339 347 2 357 355 291 160 157
279 280 279 279 279 279 283 289 293 295 298 304 306 307 312 308 299 297 307 305 298 297 286 283 306 320 344 261 238 236 238 270 328 320 267 275 296 49 301 326 333 330 317 325 304 350 345 341 356 357 23 118 145 152
279 279 284 286 283 278 278 280 280 286 291 298 301 303 308 303 300 308 300 289 278 236 285 291 318 287 329 322 266 240 239 255 276 277 251 265 282 315 284 224 51 337 347 345 299 323 321 300 335 355 10 122 148 152
285 279 280 287 285 274 271 271 273 277 283 292 297 296 297 303 308 318 292 296 268 210 293 305 312 289 332 338 334 229 228 225 224 237 247 225 102 308 296 274 334 321 316 327 296 309 300 296 321 2 93 139 156 155
293 292 282 286 293 282 276 275 281 283 292 298 293 291 286 289 294 276 255 270 301 253 269 291 295 287 319 310 315 120 166 196 222 203 212 221 93 349 297 276 331 326 331 347 341 340 303 352 346 22 153 140 160 161
290 283 290 281 279 281 283 272 275 280 292 292 291 286 281 287 289 292 251 256 249 232 245 271 279 299 332 289 221 185 190 197 208 171 157 208 108 280 272 318 334 347 355 1 359 4 348 345 64 123 153 139 132 146
280 284 282 287 286 282 279 273 276 283 287 287 289 284 287 277 244 193 240 259 217 221 269 228 280 296 331 287 274 213 204 218 197 214 142 208 162 248 277 313 343 350 347 331 12 24 38 70 84 111 134 149 139 140
277 282 285 282 277 278 265 258 265 281 276 285 287 256 235 190 192 244 265 205 186 220 232 248 226 264 304 311 287 269 207 221 241 116 139 203 179 149 217 2 356 13 3 1 341 22 40 59 75 96 113 135 152 158
275 278 275 277 268 259 246 253 256 252 262 256 228 231 184 204 237 212 234 202 179 235 221 231 217 249 257 256 302 254 309 202 266 108 270 194 209 162 163 98 77 61 68 66 72 63 57 76 85 90 105 133 157 168
271 282 263 263 253 242 236 233 237 230 219 216 209 256 212 204 214 230 211 208 206 240 204 202 225 212 245 234 268 218 280 220 275 143 258 257 130 154 152 144 118 88 91 85 74 77 75 78 83 97 108 124 156 168
274 276 262 246 239 231 230 227 223 224 228 245 220 206 203 181 219 221 198 208 218 202 203 201 206 212 211 227 255 263 252 248 135 232 264 61 147 155 150 147 150 150 109 90 79 91 99 89 90 94 104 119 135 143
270 264 249 233 229 226 224 209 214 215 212 206 183 231 204 187 234 208 211 208 225 229 195 209 237 227 199 218 234 255 67 198 241 235 246 154 166 157 152 149 144 135 124 110 100 88 86 89 94 101 99 105 115 114
262 261 254 222 221 221 204 202 217 214 204 217 198 234 224 229 246 262 244 267 256 259 204 159 188 245 213 248 209 157 214 241 236 235 154 160 163 158 149 145 141 139 136 127 118 109 98 86 74 71 81 105 122 128
254 255 239 215 210 205 191 206 212 201 206 220 230 240 234 264 249 228 244 254 234 188 152 173 97 228 231 248 203 217 229 229 203 222 139 158 162 164 163 158 150 150 144 135 127 120 105 94 88 86 80 81 105 127
232 228 225 203 194 188 189 203 189 204 219 217 234 227 242 270 265 246 210 238 171 186 197 125 226 214 282 244 234 200 221 248 298 254 184 172 168 169 171 168 169 168 164 161 149 124 105 88 73 59 48 68 95 128
215 216 189 177 181 186 187 191 207 223 227 230 225 231 225 228 245 251 244 221 232 206 182 218 168 200 217 224 230 305 283 287 289 205 175 172 171 169 171 173 175 179 182 182 179 167 133 105 78 53 43 67 106 132
208 200 189 189 195 186 197 199 207 247 226 231 246 251 252 255 258 257 254 247 243 234 242 209 229 206 219 215 237 250 294 262 209 174 170 172 171 170 171 171 167 166 164 162 155 142 125 100 70 67 82 97 123 129
189 193 194 207 205 184 198 216 194 236 239 231 235 239 239 243 258 256 248 241 227 204 207 225 221 214 219 249 263 262 295 274 204 159 166 173 175 175 174 172 171 164 160 158 154 142 120 87 64 73 86 100 108 113
194 195 187 208 186 201 214 199 198 218 255 246 259 224 247 249 244 238 232 218 190 220 218 219 227 244 259 264 272 268 267 272 211 191 180 174 179 179 177 180 178 173 171 166 161 154 143 111 75 77 90 107 106 118
195 187 182 189 185 200 220 206 210 251 251 254 265 238 249 241 233 221 209 191 221 220 220 227 241 250 254 252 260 256 230 231 224 209 193 181 178 181 184 185 184 182 185 182 175 174 173 159 102 78 87 143 165 142
179 202 168 162 179 201 214 182 188 228 240 223 223 237 227 229 225 187 229 225 231 235 236 240 247 249 248 257 255 236 210 197 214 207 195 182 182 180 185 190 190 190 191 195 200 202 206 219 225 215 219 175 190 157
176 169 169 178 187 166 164 181 210 241 239 233 230 244 238 235 182 216 250 247 235 234 231 232 232 230 234 222 209 183 173 190 208 198 184 183 184 188 190 191 192 196 200 201 202 210 226 235 239 237 229 243 209 193
184 168 175 159 168 157 181 193 201 211 242 204 230 240 244 205 181 247 245 260 235 221 218 213 201 197 192 188 185 183 192 193 180 184 185 186 184 183 187 193 197 198 198 201 210 224 236 241 239 237 226 280 221 194
211 178 180 180 159 195 189 210 203 210 201 209 228 242 233 220 212 239 229 287 250 200 192 187 180 177 184 190 185 177 175 173 181 184 182 184 188 189 189 193 198 199 198 210 228 244 254 251 244 239 227 252 217 200
174 182 197 197 185 171 216 244 236 208 205 215 228 214 208 223 233 344 332 327 150 154 158 169 178 183 187 187 182 168 163 163 168 175 176 175 179 188 192 192 194 203 218 251 258 266 272 267 249 238 225 236 215 207
211 179 177 179 186 208 269 246 194 198 204 235 234 221 224 209 37 339 343 37 135 134 136 142 153 168 179 180 170 166 169 168 161 162 166 172 181 192 205 217 218 231 246 253 248 238 260 256 229 219 212 227 208 198
202 184 167 166 190 206 217 235 233 230 214 157 295 306 16 86 359 332 324 159 152 144 128 137 140 146 149 156 159 167 176 168 166 167 172 177 181 194 201 216 231 230 234 222 204 213 216 241 214 192 187 224 199 197
204 173 188 179 194 207 224 206 233 228 238 251 269 295 171 99 29 313 298 168 162 159 155 133 144 162 159 156 151 156 159 173 168 172 166 177 199 188 174 177 182 185 204 222 227 244 199 173 176 182 203 200 195 199
163 180 195 192 227 226 231 228 237 240 227 283 244 249 163 175 343 257 165 159 171 173 166 150 143 148 153 153 156 162 165 173 180 173 161 162 170 190 193 197 203 208 212 211 219 219 205 195 195 201 207 214 208 207
180 187 201 199 223 229 220 216 226 219 226 215 219 140 187 173 196 200 150 160 172 169 177 170 157 160 165 177 174 170 176 183 187 196 198 185 187 200 207 213 220 228 230 229 228 224 220 221 218 226 224 220 216 213
190 199 208 231 217 208 204 177 258 341 233 215 212 206 199 187 191 191 174 175 168 163 159 162 169 171 173 162 160 155 150 156 161 161 163 176 189 217 240 248 251 253 253 250 245 238 233 230 229 229 229 225 222 217
Wind_Speed_850mb
75 74 71 65 62 58 55 54 54 53 54 53 54 51 48 41 35 30 27 24 16 15 57 23 22 26 24 16 7 19 19 7 10 11 9 8 5 8 9 10 12 8 9 7 7 6 9 50 19 11 11 18 15 34
76 75 74 70 66 63 57 55 56 55 53 53 52 47 46 40 31 32 30 28 26 31 58 74 53 35 40 32 21 9 6 9 9 6 4 6 4 6 8 7 11 4 8 7 9 6 18 28 24 45 22 12 28 30
66 69 71 74 71 64 62 59 57 55 55 52 50 47 43 36 29 31 32 32 32 27 53 22 7 10 26 33 21 13 7 5 6 7 4 4 5 4 6 4 8 9 22 5 10 11 28 25 53 55 18 3 29 39
68 66 68 70 71 68 66 61 60 55 53 50 47 45 41 34 29 30 28 34 34 17 11 16 26 37 14 10 22 32 27 6 12 15 5 2 4 2 3 5 5 7 21 16 9 14 33 15 59 49 19 23 40 44
65 63 64 65 68 66 64 64 60 54 49 45 43 40 38 30 28 29 33 43 35 17 10 29 43 3 9 18 17 26 35 31 14 6 5 2 1 3 5 2 1 14 7 6 6 26 15 27 52 33 12 21 36 47
58 57 59 60 61 62 60 57 54 53 41 37 40 37 34 33 25 23 12 5 5 17 10 9 19 11 16 16 6 16 22 20 11 6 4 2 1 4 3 2 3 17 19 15 14 44 34 31 23 14 6 13 35 44
49 50 53 51 49 48 45 44 38 38 30 34 38 35 34 32 30 16 12 10 10 4 7 12 14 11 19 9 2 7 20 7 9 4 4 1 0 5 2 3 12 24 22 19 24 32 9 18 16 8 7 18 31 36
47 49 45 44 41 40 37 36 27 28 28 34 36 31 28 31 34 26 15 21 24 10 9 6 8 14 11 6 3 8 8 9 5 4 3 2 2 1 3 8 17 21 14 15 21 19 14 13 4 5 8 21 31 42
51 50 53 47 43 35 30 32 25 26 26 36 29 24 29 23 8 6 9 11 19 11 8 7 5 7 16 6 5 3 6 5 4 3 4 4 1 3 4 7 13 17 14 13 16 20 16 17 20 19 16 21 28 37
54 54 54 53 49 41 31 27 19 28 34 22 23 12 6 5 8 4 8 8 17 13 13 10 7 8 9 6 5 3 2 2 4 3 7 3 3 5 2 3 8 13 18 14 6 17 18 23 17 17 18 21 30 42
55 56 56 49 43 38 27 24 25 27 17 14 10 7 10 9 7 6 8 10 10 8 14 13 21 11 8 6 5 2 2 2 4 4 4 1 4 10 12 2 7 13 14 16 17 15 16 17 15 13 13 16 24 36
56 55 44 38 34 32 30 28 28 22 13 11 5 10 9 11 10 8 6 6 10 8 11 10 13 18 8 9 6 4 4 3 3 8 4 4 6 24 21 17 12 13 15 15 14 22 22 19 19 18 18 14 20 31
58 44 40 32 30 29 29 26 18 19 21 18 10 7 7 8 9 12 14 8 7 11 13 12 6 6 6 7 7 4 5 2 6 3 4 1 19 27 25 22 19 10 4 12 19 18 22 30 30 31 30 26 27 33
56 42 39 33 31 31 28 23 20 20 17 11 10 9 12 10 11 11 9 6 9 6 9 11 4 6 5 6 3 6 2 4 4 4 4 8 30 31 26 24 22 23 25 28 30 30 30 30 28 29 35 33 36 42
48 45 46 38 35 30 29 22 23 22 16 11 10 10 15 14 10 9 14 12 12 10 8 6 3 3 4 5 4 1 5 7 6 4 1 19 39 37 34 37 37 30 24 21 19 21 24 27 27 27 23 20 21 24
47 41 44 42 35 31 32 25 27 26 12 11 13 9 14 8 12 11 17 19 9 11 10 3 1 5 8 4 7 10 4 7 1 2 5 33 45 42 43 40 33 28 24 21 18 17 19 21 20 19 15 11 10 10
38 41 32 35 27 38 32 29 25 16 15 11 13 19 18 10 12 7 9 6 10 12 5 5 7 8 1 5 6 6 6 1 2 3 9 35 49 48 47 40 33 27 21 17 15 12 10 12 12 12 10 9 8 8
43 32 27 26 36 44 43 31 14 13 16 22 10 13 20 19 15 19 19 21 9 9 12 8 7 8 7 6 4 2 6 6 5 4 17 39 49 51 47 40 31 24 20 17 13 8 6 6 6 7 8 8 9 11
44 31 31 29 40 49 18 20 19 9 23 12 18 26 21 20 33 39 36 34 25 20 8 9 10 7 7 9 10 7 6 9 6 11 28 44 50 52 44 36 29 24 22 19 16 13 11 8 7 7 8 9 10 12
42 40 32 34 41 22 11 10 15 10 8 10 14 15 17 20 25 26 31 37 37 15 16 10 10 12 13 13 13 13 12 14 21 25 31 47 52 47 42 39 33 28 28 27 23 18 13 11 11 10 10 12 14 14
49 39 34 42 38 32 11 11 13 8 8 10 6 10 11 17 20 22 24 29 21 18 15 23 26 40 34 29 23 21 15 15 28 29 50 51 56 47 44 40 33 33 33 31 25 19 13 9 10 9 7 6 6 6
43 41 30 55 15 12 10 14 6 4 7 9 9 11 12 9 12 14 15 21 19 32 32 33 43 34 29 33 29 22 17 13 25 29 34 55 61 51 48 47 41 38 36 31 24 17 13 7 5 6 5 4 3 4
38 38 15 16 10 16 4 11 5 7 7 6 5 6 7 9 8 9 9 14 22 44 47 48 49 47 38 33 27 23 20 28 25 29 34 53 52 48 49 45 42 35 34 32 27 21 15 10 7 3 1 2 5 3
33 26 14 20 14 10 10 10 9 7 8 6 5 7 8 8 10 7 7 10 27 28 36 45 42 36 29 24 24 19 28 37 30 28 39 48 49 47 43 41 37 32 27 28 28 24 21 19 17 14 9 4 7 6
5 11 12 8 9 9 9 8 9 8 8 10 6 7 6 10 5 5 5 8 15 27 26 22 25 24 29 29 31 39 39 33 33 34 39 43 45 44 41 38 34 31 28 27 26 25 25 26 26 24 19 7 10 11
8 9 13 19 13 11 12 7 12 12 8 9 9 7 5 5 6 7 5 5 8 16 24 28 29 31 29 29 29 36 35 35 30 35 41 42 44 43 40 37 34 31 30 28 28 29 31 31 31 29 28 12 16 17
7 9 10 11 10 8 6 10 6 4 9 9 5 5 6 6 6 3 11 8 1 12 18 21 23 24 27 26 27 34 34 32 26 28 35 37 37 36 36 36 32 25 15 18 22 23 31 31 32 32 30 19 19 20
7 13 9 18 9 9 5 5 10 11 8 8 4 7 5 4 4 10 10 3 19 26 20 18 15 15 21 25 31 38 35 31 26 26 32 33 31 28 26 25 26 28 30 22 18 17 17 18 22 28 32 19 23 24
9 12 16 12 12 11 13 7 6 6 5 3 3 4 3 5 15 31 15 12 27 26 22 16 17 19 24 28 30 28 30 29 34 35 35 33 31 24 21 18 20 27 26 22 19 14 11 11 19 27 22 13 23 27
10 20 13 16 9 14 12 19 11 15 11 11 9 6 2 3 8 19 3 21 30 26 20 19 20 27 30 29 29 29 25 22 18 21 23 18 17 17 17 11 9 11 13 13 11 11 20 23 28 33 23 22 31 33
11 23 9 12 9 13 26 23 24 15 7 5 8 3 3 6 6 7 4 16 21 24 25 25 30 28 25 22 20 18 19 22 15 16 17 17 16 14 18 16 12 11 13 16 16 16 21 25 30 37 30 29 34 37
17 18 11 10 8 14 15 19 16 13 12 9 1 1 9 10 10 9 13 15 19 28 27 28 27 26 20 16 20 20 17 18 17 16 15 16 16 17 16 14 14 16 17 21 23 21 24 22 28 26 34 39 41 39
11 12 13 8 7 8 12 8 1 1 4 7 11 17 19 16 11 17 19 18 20 24 31 29 22 19 20 18 17 17 15 14 13 12 10 9 8 8 10 12 14 15 18 21 24 27 30 36 40 43 39 37 38 41
Wind_Direction_850mb
285 287 293 294 301 306 311 315 317 319 319 319 320 324 325 325 323 322 320 317 284 256 294 274 280 264 276 264 271 319 333 9 328 21 6 351 322 6 311 342 336 8 336 343 330 353 2 357 354 30 346 317 160 154
281 285 287 287 294 299 302 306 308 312 314 314 315 318 320 320 315 316 318 319 307 279 280 297 295 279 250 251 269 276 279 291 338 330 341 323 319 337 317 321 347 37 18 296 333 355 326 348 346 326 313 253 149 144
280 280 281 282 284 287 290 297 301 305 308 309 312 313 317 313 305 304 317 314 313 297 306 314 332 319 292 292 257 229 233 276 344 323 297 308 319 314 344 333 282 357 16 324 321 5 339 347 2 357 355 291 160 157
279 280 279 279 279 279 283 289 293 295 298 304 306 307 312 308 299 297 307 305 298 297 286 283 306 320 344 261 238 236 238 270 328 320 267 275 296 49 301 326 333 330 317 325 304 350 345 341 356 357 23 118 145 152
279 279 284 286 283 278 278 280 280 286 291 298 301 303 308 303 300 308 300 289 278 236 285 291 318 287 329 322 266 240 239 255 276 277 251 265 282 315 284 224 51 337 347 345 299 323 321 300 335 355 10 122 148 152
285 279 280 287 285 274 271 271 273 277 283 292 297 296 297 303 308 318 292 296 268 210 293 305 312 289 332 338 334 229 228 225 224 237 247 225 102 308 296 274 334 321 316 327 296 309 300 296 321 2 93 139 156 155
293 292 282 286 293 282 276 275 281 283 292 298 293 291 286 289 294 276 255 270 301 253 269 291 295 287 319 310 315 120 166 196 222 203 212 221 93 349 297 276 331 326 331 347 341 340 303 352 346 22 153 140 160 161
290 283 290 281 279 281 283 272 275 280 292 292 291 286 281 287 289 292 251 256 249 232 245 271 279 299 332 289 221 185 190 197 208 171 157 208 108 280 272 318 334 347 355 1 359 4 348 345 64 123 153 139 132 146
280 284 282 287 286 282 279 273 276 283 287 287 289 284 287 277 244 193 240 259 217 221 269 228 280 296 331 287 274 213 204 218 197 214 142 208 162 248 277 313 343 350 347 331 12 24 38 70 84 111 134 149 139 140
277 282 285 282 277 278 265 258 265 281 276 285 287 256 235 190 192 244 265 205 186 220 232 248 226 264 304 311 287 269 207 221 241 116 139 203 179 149 217 2 356 13 3 1 341 22 40 59 75 96 113 135 152 158
275 278 275 277 268 259 246 253 256 252 262 256 228 231 184 204 237 212 234 202 179 235 221 231 217 249 257 256 302 254 309 202 266 108 270 194 209 162 163 98 77 61 68 66 72 63 57 76 85 90 105 133 157 168
271 282 263 263 253 242 236 233 237 230 219 216 209 256 212 204 214 230 211 208 206 240 204 202 225 212 245 234 268 218 280 220 275 143 258 257 130 154 152 144 118 88 91 85 74 77 75 78 83 97 108 124 156 168
274 276 262 246 239 231 230 227 223 224 228 245 220 206 203 181 219 221 198 208 218 202 203 201 206 212 211 227 255 263 252 248 135 232 264 61 147 155 150 147 150 150 109 90 79 91 99 89 90 94 104 119 135 143
270 264 249 233 229 226 224 209 214 215 212 206 183 231 204 187 234 208 211 208 225 229 195 209 237 227 199 218 234 255 67 198 241 235 246 154 166 157 152 149 144 135 124 110 100 88 86 89 94 101 99 105 115 114
262 261 254 222 221 221 204 202 217 214 204 217 198 234 224 229 246 262 244 267 256 259 204 159 188 245 213 248 209 157 214 241 236 235 154 160 163 158 149 145 141 139 136 127 118 109 98 86 74 71 81 105 122 128
254 255 239 215 210 205 191 206 212 201 206 220 230 240 234 264 249 228 244 254 234 188 152 173 97 228 231 248 203 217 229 229 203 222 139 158 162 164 163 158 150 150 144 135 127 120 105 94 88 86 80 81 105 127
232 228 225 203 194 188 189 203 189 204 219 217 234 227 242 270 265 246 210 238 171 186 197 125 226 214 282 244 234 200 221 248 298 254 184 172 168 169 171 168 169 168 164 161 149 124 105 88 73 59 48 68 95 128
215 216 189 177 181 186 187 191 207 223 227 230 225 231 225 228 245 251 244 221 232 206 182 218 168 200 217 224 230 305 283 287 289 205 175 172 171 169 171 173 175 179 182 182 179 167 133 105 78 53 43 67 106 132
208 200 189 189 195 186 197 199 207 247 226 231 246 251 252 255 258 257 254 247 243 234 242 209 229 206 219 215 237 250 294 262 209 174 170 172 171 170 171 171 167 166 164 162 155 142 125 100 70 67 82 97 123 129
189 193 194 207 205 184 198 216 194 236 239 231 235 239 239 243 258 256 248 241 227 204 207 225 221 214 219 249 263 262 295 274 204 159 166 173 175 175 174 172 171 164 160 158 154 142 120 87 64 73 86 100 108 113
194 195 187 208 186 201 214 199 198 218 255 246 259 224 247 249 244 238 232 218 190 220 218 219 227 244 259 264 272 268 267 272 211 191 180 174 179 179 177 180 178 173 171 166 161 154 143 111 75 77 90 107 106 118
195 187 182 189 185 200 220 206 210 251 251 254 265 238 249 241 233 221 209 191 221 220 220 227 241 250 254 252 260 256 230 231 224 209 193 181 178 181 184 185 184 182 185 182 175 174 173 159 102 78 87 143 165 142
179 202 168 162 179 201 214 182 188 228 240 223 223 237 227 229 225 187 229 225 231 235 236 240 247 249 248 257 255 236 210 197 214 207 195 182 182 180 185 190 190 190 191 195 200 202 206 219 225 215 219 175 190 157
176 169 169 178 187 166 164 181 210 241 239 233 230 244 238 235 182 216 250 247 235 234 231 232 232 230 234 222 209 183 173 190 208 198 184 183 184 188 190 191 192 196 200 201 202 210 226 235 239 237 229 243 209 193
184 168 175 159 168 157 181 193 201 211 242 204 230 240 244 205 181 247 245 260 235 221 218 213 201 197 192 188 185 183 192 193 180 184 185 186 184 183 187 193 197 198 198 201 210 224 236 241 239 237 226 280 221 194
211 178 180 180 159 195 189 210 203 210 201 209 228 242 233 220 212 239 229 287 250 200 192 187 180 177 184 190 185 177 175 173 181 184 182 184 188 189 189 193 198 199 198 210 228 244 254 251 244 239 227 252 217 200
174 182 197 197 185 171 216 244 236 208 205 215 228 214 208 223 233 344 332 327 150 154 158 169 178 183 187 187 182 168 163 163 168 175 176 175 179 188 192 192 194 203 218 251 258 266 272 267 249 238 225 236 215 207
211 179 177 179 186 208 269 246 194 198 204 235 234 221 224 209 37 339 343 37 135 134 136 142 153 168 179 180 170 166 169 168 161 162 166 172 181 192 205 217 218 231 246 253 248 238 260 256 229 219 212 227 208 198
202 184 167 166 190 206 217 235 233 230 214 157 295 306 16 86 359 332 324 159 152 144 128 137 140 146 149 156 159 167 176 168 166 167 172 177 181 194 201 216 231 230 234 222 204 213 216 241 214 192 187 224 199 197
204 173 188 179 194 207 224 206 233 228 238 251 269 295 171 99 29 313 298 168 162 159 155 133 144 162 159 156 151 156 159 173 168 172 166 177 199 188 174 177 182 185 204 222 227 244 199 173 176 182 203 200 195 199
163 180 195 192 227 226 231 228 237 240 227 283 244 249 163 175 343 257 165 159 171 173 166 150 143 148 153 153 156 162 165 173 180 173 161 162 170 190 193 197 203 208 212 211 219 219 205 195 195 201 207 214 208 207
180 187 201 199 223 229 220 216 226 219 226 215 219 140 187 173 196 200 150 160 172 169 177 170 157 160 165 177 174 170 176 183 187 196 198 185 187 200 207 213 220 228 230 229 228 224 220 221 218 226 224 220 216 213
190 199 208 231 217 208 204 177 258 341 233 215 212 206 199 187 191 191 174 175 168 163 159 162 169 171 173 162 160 155 150 156 161 161 163 176 189 217 240 248 251 253 253 250 245 238 233 230 229 229 229 225 222 217